Weather in Ust-Lyzha

Russia / Komi Republic     65°40′54″N   56°40′37″E
temp.,
°C
wind,
m/s
gust,
m/s
humid.,
%
clouds,
%
prec.,
mm/h
press.,
hPa
HPBL,
m
26 february, fri
fri2600:00−20s41092100 0.0 1020310
03:00−20s41191100 0.0 1020343
06:00−21s41291100 0.0 1019343
09:00−20s51189100 0.0 1018419
12:00−18s51188100 0.0 1017451
15:00−17s5118590 0.0 1016510
18:00−19s4138787 0.0 1016438
21:00−19s4138987 0.0 1016432
27 february, sat
sat2700:00−19s4129088 0.0 1015425
03:00−20s4119089 0.0 1016375
06:00−20s4109296 0.0 1015375
09:00−18s499198 0.0 1016369
12:00−15s399082 0.0 1015448
15:00−15s279163 0.0 1015330
18:00−18s259488 0.0 101490
21:00−18ssw399194 0.0 1015199
28 february, sun
sun2800:00−19s3893100 0.0 1014197
03:00−20s399596 0.0 1014216
06:00−21s489389 0.0 1014237
09:00−19ssw489494 0.0 1013272
12:00−16ssw379497 0.0 1013337
15:00−15ssw379499 0.3 1014387
18:00−15ssw379594 0.1 1014281
21:00−16ssw379692 0.2 1014196
1 march, mon
mon100:00−17ssw389688 0.1 1014211
03:00−17ssw499593 0.1 1013267
06:00−16ssw51094100 0.1 1011309
09:00−15s51394100 0.1 1008349
12:00−12s71593100 0.3 1004445
15:00−10ssw71593100 0.9 1000710
18:00−8ssw71593100 0.9 996816
21:00−8ssw71493100 1.9 994795
2 march, tue
tue200:00−7ssw61393100 0.9 992705
03:00−7ssw61293100 2.0 991567
06:00−7ssw51094100 0.3 989435
09:00−5s51095100 0.6 989466
12:00−3ssw4997100 1.0 989528
15:00−1wsw3892100 1.9 989638
18:00−3wsw41093100 0.1 989601
21:00−4sw41092100 0.1 988597